Lapse_Rate
8.6 8.6 8.2 8.1 8.1 8.1 8.0 7.5 7.0 6.6 6.6 6.1 5.7 5.7 5.7 5.6 5.4 5.4 5.6 5.6 5.5 5.6 5.6 5.7 5.9 6.0 6.0 6.1 6.6 6.7 6.6 6.4 6.2 6.5 6.4 5.1 4.9 5.0 5.4 6.0 6.0 6.0 6.0
8.3 8.3 8.4 8.3 8.4 7.9 7.9 7.7 7.4 7.1 6.9 6.7 6.2 6.1 6.0 5.7 5.6 5.5 5.6 5.6 5.5 5.5 5.5 5.7 6.0 6.1 6.4 6.5 6.8 6.8 6.7 6.6 6.4 6.4 6.5 5.0 5.6 5.4 5.4 5.8 5.9 6.1 5.8
8.6 8.6 8.3 8.5 8.5 8.3 8.1 7.9 7.6 7.4 7.0 6.8 6.5 6.3 6.2 5.9 5.8 5.7 5.6 5.4 5.3 5.4 5.5 5.6 5.8 5.9 6.2 6.6 6.8 7.1 6.8 6.7 6.5 6.6 6.6 6.3 6.5 5.7 5.8 6.0 6.2 6.1 6.0
8.7 8.8 8.5 8.6 8.6 8.0 8.0 8.3 7.9 7.5 7.1 6.8 6.7 6.4 6.3 6.0 5.9 5.8 5.6 5.4 5.3 5.4 5.4 5.6 5.8 5.8 5.8 6.0 6.6 7.1 7.0 6.8 6.7 6.4 6.5 6.3 6.6 6.3 6.4 6.4 6.4 6.2 6.2
8.8 8.7 8.5 8.6 8.4 8.0 7.8 7.8 8.1 7.8 7.4 7.1 6.9 6.6 6.5 6.2 6.0 5.8 5.6 5.4 5.3 5.3 5.4 5.5 5.7 5.7 5.9 6.0 6.3 6.8 7.0 6.8 6.8 6.5 6.3 6.3 6.4 6.4 6.4 6.4 6.4 6.3 6.3
8.8 8.7 8.5 8.3 8.3 8.1 8.1 7.8 7.9 7.9 7.6 7.4 7.2 7.0 6.7 6.4 6.0 5.8 5.6 5.3 5.2 5.2 5.3 5.5 5.5 5.5 5.6 5.8 6.0 6.5 6.7 6.6 6.9 6.7 6.3 6.4 6.4 6.4 6.4 6.3 6.4 6.4 6.3
8.4 8.6 8.4 8.2 8.2 8.1 8.1 7.8 7.7 7.8 7.6 7.5 7.4 7.1 6.7 6.5 6.0 5.9 5.5 5.3 5.2 5.2 5.2 5.3 5.4 5.4 5.4 5.5 5.8 6.1 6.2 6.6 6.3 6.6 6.6 6.5 6.4 6.3 6.3 6.3 6.4 6.3 6.3
8.3 8.1 8.3 8.3 8.2 8.2 8.1 7.9 7.6 7.6 7.6 7.4 7.4 7.1 6.9 6.6 6.1 5.9 5.6 5.2 5.2 5.2 5.4 5.3 5.3 5.2 5.4 5.5 5.7 5.7 6.0 6.5 6.4 6.4 6.5 6.5 6.5 6.4 6.2 6.2 6.3 6.3 6.3
8.1 8.0 8.1 8.2 8.3 8.2 8.1 8.0 7.7 7.5 7.6 7.5 7.4 7.2 7.0 6.7 6.3 5.9 5.5 5.2 5.1 5.1 5.4 5.2 5.1 5.2 5.5 5.5 5.6 5.5 5.8 6.3 6.6 6.6 6.6 6.6 6.5 6.3 6.3 6.4 6.4 6.2 6.3
8.1 8.3 8.2 8.1 8.0 8.2 8.0 8.0 7.9 7.6 7.6 7.6 7.5 7.4 7.0 6.7 6.5 6.1 5.6 5.2 5.0 5.2 5.4 5.3 5.0 5.2 5.4 5.8 5.8 5.9 6.0 6.1 6.4 6.6 6.6 6.4 6.3 6.2 6.1 6.1 6.1 6.2 6.4
8.0 8.1 8.2 8.1 8.0 7.8 7.9 8.0 8.0 7.8 7.7 7.6 7.5 7.5 7.2 6.9 6.6 6.2 5.7 5.4 5.1 5.2 5.3 5.2 5.2 5.3 5.3 5.9 5.8 5.8 6.1 6.4 6.3 6.6 6.5 6.5 6.3 6.2 6.1 6.0 6.0 6.2 6.2
7.9 8.2 8.1 8.2 8.0 8.0 8.1 8.0 7.9 7.7 7.7 7.7 7.6 7.6 7.4 7.0 6.7 6.3 5.9 5.6 5.3 5.2 5.2 5.2 5.2 5.3 5.3 5.5 5.6 5.6 6.1 6.5 6.3 6.4 6.5 6.3 6.3 6.1 6.0 5.9 6.0 6.2 6.3
7.8 8.0 8.3 8.2 8.1 7.9 8.1 7.8 7.7 7.6 7.7 7.7 7.6 7.6 7.5 7.1 6.8 6.4 6.0 5.8 5.4 5.2 5.4 5.4 5.2 5.3 5.3 5.6 5.5 5.8 5.9 6.4 6.0 6.2 6.2 6.4 6.2 6.0 6.0 6.0 6.0 6.2 6.3
7.3 7.7 8.4 8.4 8.2 8.0 8.0 8.1 7.8 7.5 7.6 7.7 7.6 7.5 7.5 7.2 6.9 6.6 6.2 6.1 5.7 5.3 5.4 5.5 5.2 5.0 5.4 5.5 5.6 5.7 5.9 5.7 5.6 5.9 6.0 6.1 6.0 5.8 6.0 6.0 6.1 6.1 6.1
7.5 7.3 7.5 8.2 8.5 8.4 7.9 8.3 7.9 7.7 7.7 7.7 7.6 7.6 7.4 7.2 6.9 6.7 6.3 6.3 6.0 5.6 5.4 5.4 5.4 5.2 5.4 5.5 5.6 5.7 5.7 5.7 5.8 5.8 5.8 5.6 5.7 5.8 5.7 5.9 6.0 6.0 6.1
7.5 7.6 7.5 7.6 7.9 8.5 8.0 8.0 8.0 7.6 7.6 7.7 7.6 7.6 7.5 7.3 7.1 6.8 6.6 6.3 6.4 5.9 5.6 5.3 5.2 5.3 5.3 5.5 5.5 5.6 5.8 5.7 5.5 5.5 5.4 5.3 5.5 5.6 5.5 5.6 5.9 6.0 6.0
7.3 7.4 7.7 7.4 7.8 8.0 8.0 8.0 7.9 7.9 7.6 7.5 7.6 7.5 7.5 7.4 7.2 7.0 6.7 6.5 6.4 6.1 5.8 5.5 5.2 5.2 5.2 5.4 5.5 5.5 5.7 5.6 5.2 5.5 5.6 5.2 5.5 5.5 5.5 5.6 5.7 5.9 6.1
7.5 7.4 7.3 7.3 7.3 7.5 7.9 8.0 7.8 7.8 7.8 7.7 7.5 7.6 7.6 7.5 7.4 7.1 6.8 6.7 6.5 6.4 6.0 5.8 5.6 5.5 5.5 5.3 5.4 5.5 5.5 5.7 5.5 5.3 5.5 5.5 5.6 5.2 5.5 5.6 5.7 5.8 6.2
8.3 7.7 7.5 7.6 7.5 7.5 7.7 8.0 7.8 8.0 7.9 7.7 7.6 7.5 7.6 7.5 7.6 7.3 7.0 6.9 6.8 6.6 6.3 6.1 6.0 5.8 5.7 5.4 5.4 5.6 5.6 5.5 5.7 5.6 5.6 5.6 5.5 5.4 5.3 5.5 5.7 5.8 6.1
7.9 8.3 7.7 7.6 8.1 8.1 7.8 8.0 8.0 8.1 7.8 8.0 7.9 7.5 7.5 7.8 7.7 7.5 7.1 7.0 7.0 6.9 6.7 6.5 6.5 6.1 5.9 5.6 5.3 5.4 5.4 5.5 5.3 5.5 5.7 5.9 5.5 5.6 5.2 5.2 5.5 5.8 6.3
7.9 7.8 8.2 7.7 7.9 8.5 8.3 8.3 8.1 8.1 8.2 8.1 8.2 7.9 7.7 7.7 7.8 7.5 7.3 7.1 7.2 7.1 6.9 6.7 6.8 6.8 6.4 6.3 5.7 5.6 5.8 5.6 5.6 5.3 5.4 5.6 5.4 5.3 5.2 5.4 5.3 5.6 5.8
7.4 7.5 7.9 7.9 7.9 8.2 8.5 8.5 8.5 8.6 8.3 8.2 8.3 8.2 7.9 7.8 7.7 7.6 7.5 7.4 7.2 7.2 7.2 7.1 6.9 6.9 6.8 6.8 6.4 5.6 5.8 5.7 5.7 5.4 5.4 5.5 5.6 5.4 5.1 5.3 5.1 5.5 5.7
7.5 7.4 7.7 7.9 8.0 8.0 8.3 8.3 8.4 8.4 8.6 8.3 8.2 8.2 8.0 8.0 7.8 7.8 7.8 7.6 7.4 7.3 7.1 7.1 7.0 6.9 7.0 6.8 6.8 6.1 6.1 6.2 5.6 5.4 5.5 5.4 5.4 5.5 5.4 5.3 5.3 5.5 5.6
6.4 7.1 7.4 7.7 8.1 7.9 8.4 8.1 7.7 8.5 8.4 8.2 8.3 8.5 8.4 8.3 8.0 8.0 7.7 7.8 7.6 7.5 7.3 7.2 7.1 6.9 6.9 6.9 6.8 6.7 6.5 6.5 6.1 5.7 5.3 5.4 5.3 5.4 5.6 5.5 5.6 5.3 5.4
6.8 7.0 7.0 7.7 8.1 8.0 8.4 8.6 8.5 8.5 8.4 8.7 8.4 8.6 8.6 8.6 8.1 8.2 7.8 7.6 7.8 7.6 7.5 7.5 7.2 7.3 7.0 7.0 7.0 6.7 6.7 6.7 6.9 5.9 5.5 5.5 5.4 5.4 5.3 5.7 5.7 5.5 5.4
7.1 7.0 7.0 7.7 8.1 8.1 8.2 8.4 8.6 8.4 8.7 8.7 8.6 8.6 8.3 8.7 8.4 8.3 8.0 7.6 7.7 7.8 7.6 7.6 7.4 7.3 7.2 7.1 7.0 6.9 6.8 6.7 6.9 5.9 5.6 5.7 5.8 5.9 5.6 5.5 5.6 5.7 5.5
Wind_Speed
8 18 21 19 18 17 16 14 12 13 15 16 19 21 21 21 21 21 20 19 17 17 17 15 15 15 13 13 14 14 15 19 23 24 25 15 11 10 19 18 20 22 23
14 20 21 21 19 17 16 14 13 12 14 16 17 18 19 20 20 20 20 19 17 17 17 14 14 12 15 15 15 16 18 22 24 25 30 21 16 11 13 20 21 23 24
18 21 23 22 22 20 18 16 14 13 15 17 18 18 19 19 19 19 19 18 17 17 17 14 14 13 16 18 17 16 17 22 25 23 25 20 19 16 18 22 23 23 24
16 19 21 20 20 18 17 19 16 14 14 16 18 19 19 19 19 18 18 18 17 16 15 15 14 14 17 17 19 20 21 22 22 21 17 17 17 22 21 22 22 23 24
16 20 20 21 20 19 18 17 17 17 16 15 16 17 17 16 17 17 17 16 15 15 15 15 16 16 16 17 19 21 20 20 19 15 18 17 18 21 22 22 22 22 22
15 17 19 20 18 17 17 17 17 19 18 17 16 16 16 16 15 15 16 16 15 15 15 15 15 17 19 20 19 20 20 22 17 17 16 17 16 21 22 20 21 22 22
8 14 17 18 18 18 18 17 17 18 19 19 18 17 17 17 15 15 15 15 15 14 14 15 17 19 20 21 23 25 19 17 21 17 16 13 18 21 23 22 21 20 21
7 6 13 15 16 19 18 18 17 18 19 20 20 19 18 18 16 16 15 14 17 16 15 17 18 19 20 19 22 23 21 20 18 19 17 16 20 22 22 20 19 20 20
2 2 3 12 15 13 17 17 18 18 20 21 21 21 21 20 18 16 14 13 12 14 17 18 20 21 21 22 23 23 20 18 17 16 16 15 19 22 21 19 19 19 20
3 2 3 7 9 11 13 15 17 18 20 20 21 22 23 20 19 17 15 13 12 14 18 21 21 22 20 22 22 24 23 20 15 17 15 16 19 22 21 19 17 17 19
3 3 3 7 8 8 7 12 12 13 16 17 18 20 22 15 16 17 12 14 12 12 18 19 22 23 24 21 19 20 22 12 15 13 14 23 20 20 21 21 18 18 18
9 7 6 6 7 8 8 9 14 14 15 16 17 18 15 15 14 14 14 14 13 10 12 19 19 19 18 16 14 15 11 14 13 14 14 24 21 21 21 21 20 18 17
9 8 10 9 7 5 6 9 9 10 10 11 15 17 14 14 13 11 12 13 12 9 9 14 15 14 13 13 14 11 11 11 11 12 17 23 23 21 21 21 20 18 17
12 13 13 14 10 7 6 6 9 7 9 7 11 15 14 9 10 10 10 12 13 10 10 10 10 11 13 13 13 12 10 8 10 12 16 21 22 22 22 21 20 19 18
13 14 17 17 15 11 9 6 8 8 8 10 11 13 14 9 9 12 10 11 13 13 11 9 9 11 11 11 9 10 11 11 10 8 14 20 20 21 21 20 20 18 18
14 16 16 19 19 17 14 11 10 11 14 13 12 13 15 13 9 10 9 8 11 14 13 11 8 5 6 9 8 9 10 9 9 8 8 14 21 20 20 20 20 20 19
14 15 16 18 19 19 21 15 10 11 13 9 12 16 17 15 14 11 10 9 11 14 14 11 9 8 6 7 8 8 6 9 8 7 11 10 10 17 19 19 20 20 21
19 15 14 14 17 20 18 16 13 11 10 10 12 14 17 18 17 12 9 9 14 13 12 8 7 6 6 6 6 5 4 7 10 11 10 13 10 9 16 19 19 19 20
20 18 13 14 18 19 18 14 14 15 13 10 13 14 17 19 19 13 9 10 14 9 7 8 6 8 7 6 6 6 5 5 7 10 10 10 10 9 11 20 18 18 22
19 20 17 12 17 18 13 12 11 10 12 11 11 10 18 16 20 15 9 10 13 7 7 7 10 8 8 7 6 5 4 4 5 7 9 8 8 9 9 12 14 14 20
21 20 20 15 16 13 13 13 12 13 13 11 11 14 16 17 18 14 10 11 10 10 11 12 9 12 6 9 6 4 3 3 5 6 8 8 8 9 10 10 11 12 15
21 21 20 18 15 17 14 14 13 14 12 12 11 12 15 16 18 13 14 12 13 11 12 13 13 7 4 10 6 6 3 2 4 6 6 7 8 10 11 13 14 13 14
21 20 21 20 16 18 20 12 10 10 6 9 11 11 15 16 16 15 17 14 13 11 10 12 14 15 9 9 12 5 4 6 4 4 8 7 9 6 10 12 15 17 17
24 19 21 20 19 17 19 16 18 15 15 13 15 14 13 17 16 14 16 16 14 10 11 10 11 13 12 11 8 8 3 6 5 4 4 7 9 10 8 11 12 16 16
23 17 19 19 19 17 19 20 18 19 15 11 11 15 15 15 16 17 16 18 15 11 12 12 11 14 12 11 11 10 8 5 3 2 3 4 6 8 8 8 13 13 16
16 16 18 18 19 16 20 23 23 23 17 12 14 12 12 12 12 15 16 17 16 15 15 13 14 17 14 12 11 11 10 8 9 5 3 6 8 7 9 8 9 13 15
Wind_Direction
172 152 146 145 147 151 154 159 159 139 131 132 141 147 148 143 144 142 144 147 149 143 147 150 159 162 162 152 139 136 127 121 112 108 97 90 98 125 104 103 112 114 107
151 153 146 149 152 152 151 155 155 143 127 129 135 139 137 139 144 143 146 149 149 148 153 153 147 152 153 144 144 142 135 129 125 125 124 139 146 133 128 123 117 116 107
155 158 158 155 154 156 154 154 152 146 134 135 134 136 139 146 146 145 146 146 147 153 161 155 152 147 144 142 142 134 125 118 126 132 138 151 141 151 142 118 114 108 108
156 157 163 158 154 158 160 156 155 150 147 142 143 144 147 148 145 144 145 146 151 159 160 162 153 145 144 138 128 123 122 123 123 126 135 140 150 134 120 114 112 110 109
163 162 166 161 161 164 164 162 155 154 155 151 146 145 144 142 143 148 147 148 153 151 155 161 154 140 139 135 131 125 121 118 124 141 135 142 138 126 121 116 111 114 113
166 167 163 157 163 166 168 166 162 159 160 158 153 146 141 139 139 139 148 154 155 158 159 157 140 135 135 132 123 118 126 128 133 131 126 119 130 127 122 116 115 113 114
199 169 166 160 165 171 175 171 173 167 163 160 154 151 142 135 132 139 147 160 158 162 161 152 145 140 138 136 133 134 130 139 132 133 131 134 133 133 129 124 118 118 118
207 197 168 170 173 176 180 175 183 175 169 163 158 151 142 139 141 148 153 158 170 171 166 153 145 140 138 134 128 125 140 137 137 140 139 148 139 134 131 127 119 117 120
79 172 217 194 188 188 181 179 188 183 176 169 163 153 147 148 147 149 157 161 164 171 163 149 144 147 145 143 141 141 137 142 144 140 147 144 142 134 130 128 124 123 117
84 106 203 220 211 198 200 190 192 190 183 175 166 157 154 153 150 148 154 162 168 172 165 151 149 147 148 148 148 144 143 143 145 146 151 145 147 137 134 131 130 124 122
142 170 202 217 212 216 213 209 197 197 190 178 168 160 154 158 158 157 156 162 167 171 175 147 150 153 151 151 149 143 144 155 155 151 155 148 143 143 143 139 138 133 131
191 189 199 215 224 224 223 217 201 198 199 193 183 171 165 159 161 167 166 167 166 165 167 149 147 144 143 151 153 150 163 163 159 152 148 153 148 153 149 147 144 146 144
209 200 191 207 222 217 223 214 203 193 194 201 196 176 166 156 154 159 160 167 165 154 156 144 149 157 160 148 162 174 174 167 156 155 155 158 158 160 157 154 153 152 151
203 202 197 195 204 209 220 222 213 203 187 192 204 188 169 165 165 165 168 165 165 162 152 158 162 169 164 163 178 162 171 173 172 158 163 168 166 165 165 160 157 160 158
250 216 193 191 195 203 207 214 212 212 204 185 194 201 187 175 169 167 169 168 162 158 156 164 163 174 176 166 175 167 170 176 168 158 167 177 178 174 170 165 162 165 166
293 250 214 195 188 188 201 203 214 212 210 204 185 195 200 185 174 172 173 173 171 170 163 162 172 162 182 174 182 193 172 167 178 164 156 192 186 182 175 171 170 172 169
288 276 243 219 193 191 190 190 202 207 210 215 207 184 195 194 182 175 174 180 174 171 158 160 159 172 164 176 186 184 177 150 158 173 159 185 200 189 186 184 182 179 177
280 276 257 236 214 200 195 192 188 189 202 209 214 196 187 195 186 180 179 179 178 172 168 171 164 173 168 177 178 171 180 189 185 171 163 163 188 217 199 192 188 188 187
274 270 258 244 227 212 204 191 193 188 189 195 199 208 189 193 189 182 183 176 174 176 177 178 174 177 173 172 176 177 170 185 197 187 166 175 187 208 225 199 195 194 193
269 267 262 240 228 215 202 193 195 193 196 189 190 201 199 192 192 187 183 175 172 171 171 181 184 183 186 173 165 159 169 184 191 197 187 160 192 197 222 224 193 198 196
262 261 258 235 223 205 197 194 190 199 194 201 194 191 199 193 189 192 186 179 180 180 185 185 187 175 165 164 130 123 98 183 191 192 189 200 189 202 195 238 194 195 193
252 254 252 245 223 207 202 199 202 197 200 198 192 190 194 198 189 189 187 185 185 184 187 186 182 175 158 177 164 163 175 158 219 214 203 204 199 190 192 210 204 200 204
247 243 251 256 237 209 205 193 189 189 175 193 191 191 198 197 194 193 193 186 185 185 184 188 190 188 176 191 183 162 170 213 173 189 214 211 194 196 200 199 209 206 206
250 232 244 245 240 218 200 191 187 194 190 201 195 194 193 191 194 191 195 190 183 181 183 185 194 196 191 188 197 215 200 145 193 179 205 210 209 206 199 200 196 204 200
249 226 233 239 235 219 198 198 194 200 207 190 192 190 188 191 195 191 192 193 185 183 184 180 184 198 199 197 199 194 204 187 154 147 179 188 205 208 200 196 197 200 207
256 232 231 230 224 208 199 202 197 203 199 190 185 189 185 188 191 192 191 195 189 188 187 184 188 197 200 204 204 206 206 203 207 199 196 199 208 210 206 196 192 195 197